Regional Weather Roundup
Issued by NWS Kansas City/Pleasant Hill, MO

Home | Current Version | Previous Version | Graphics & Text | Print | Product List | Glossary Off
Versions: 1 2 3 4 5 6 7 8 9 10 11 12 13 14 15 16 17 18 19 20 21 22 23 24 25 26 27 28 29 30 31 32 33 34 35 36 37 38 39 40 41 42 43 44 45 46 47 48 49 50

000
ASUS43 KEAX 071510
RWREAX

WEATHER ROUNDUP FOR EASTERN KANSAS AND NORTHWEST MISSOURI
NATIONAL WEATHER SERVICE KANSAS CITY/PLEASANT HILL MO
1000 AM CDT TUE JUL 07 2015

KSZ040-057-103>105-MOZ028-029-037-043-071600-
...KANSAS CITY METROPOLITAN AREA...

CITY           SKY/WX    TMP DP  RH WIND       PRES   REMARKS
K.C. INTL      CLOUDY    65  59  81 N12       30.07R
K.C. DOWNTOWN  CLOUDY    67  60  78 N12       30.06R HAZE
LEES SUMMIT    CLOUDY    66  61  84 N10       30.06R HAZE
OLATHE - IXD   CLOUDY    64  62  93 N15       30.07R FOG
OLATHE - OJC   CLOUDY    65  61  87 N12       30.06R FOG
LAWRENCE       PTSUNNY   66  58  75 N10       30.08R

$$

MOZ001>008-011>017-020>025-030>033-038>040-044>046-053-054-071600-
...NORTHERN AND CENTRAL MISSOURI...

CITY           SKY/WX    TMP DP  RH WIND       PRES   REMARKS
ST. JOSEPH     MOSUNNY   65  56  72 MISG      30.09R
MOSBY          CLOUDY    64  59  82 N9        30.06R
WARRENSBURG    CLOUDY    64  59  82 N8        30.04R HAZE
WHITEMAN AFB   CLOUDY    63  59  86 NE15      30.03R FOG
CLINTON        CLOUDY    64  61  88 NE12      30.02R FOG
SEDALIA        CLOUDY    64  59  83 N12       30.04R HAZE
WARSAW         NOT AVBL
CHILLICOTHE      N/A     67  59  75 N7        30.06R
KIRKSVILLE     PTSUNNY   68  58  70 N16       30.04R HAZE

$$

MOZ041-047>049-056>058-063>065-088>090-097-071600-
...EASTERN AND SOUTHERN MISSOURI...

CITY           SKY/WX    TMP DP  RH WIND       PRES   REMARKS
ST. LOUIS INTL LGT RAIN  75  72  88 NW13      29.95R
SPIRIT OF STL  LGT RAIN  72  72 100 NW12      29.94R FOG
COLUMBIA       CLOUDY    66  64  93 N12       30.00R FOG
ROLLA          CLOUDY    72  71  97 SW6       29.97R
OSAGE BEACH    CLOUDY    70  66  88 N7        29.98R
SPRINGFIELD    CLOUDY    76  72  87 S3        29.98S
BRANSON        LGT RAIN  72  72 100 N5        30.02R FOG
JOPLIN         CLOUDY    69  67  93 N7        29.99R FOG
WEST PLAINS    CLOUDY    77  71  82 SW8       30.01R

$$

IAZ060-094-KSZ022-034>040-054-083-096-NEZ052-066-093-071600-
...KANSAS...SOUTHEAST NEBRASKA AND IOWA...

CITY           SKY/WX    TMP DP  RH WIND       PRES   REMARKS
TOPEKA         PTSUNNY   66  56  70 N14       30.09R
MANHATTAN      MOSUNNY   67  52  58 NE16G22   30.11S
EMPORIA        CLOUDY    64  59  83 N13       30.08R
CHANUTE        LGT RAIN  63  61  93 NE12G22   30.04R FOG
WICHITA        LGT RAIN  67  63  87 NE9       30.07R FOG
OMAHA          MOSUNNY   64  48  56 N18       30.16S
LINCOLN        SUNNY     65  49  56 N18G26    30.18R
FALLS CITY     SUNNY     65  51  60 N9G23     30.12R
LAMONI         MOSUNNY   64  56  75 N13       30.09R
DES MOINES     MOSUNNY   65  52  62 N13       30.10S

$$




USA.gov is the U.S. government's official web portal to all federal, state and local government web resources and services.